sat.trackr.live / text

‹ back to catalog

HULIANWANG DIGUI-57

NORAD 65114 · 2025-168J

PAYLOAD ACTIVE UNKNOWN

§ Identity

Operator
Country
PRC
Launch date
2025-08-04
Launch site
WSC
Launch vehicle
Mass (kg)
RCS (m²)

External: N2YO · Heavens-Above · Gunter

§ Orbital elements

Epoch: 2026-09-21T18:36:20.694528Z

Period
108.33 min
Inclination
50.0035°
Eccentricity
0.0008743
Mean motion
13.29330967 rev/d
Perigee alt
1,142.7 km
Apogee alt
1,155.9 km
Semi-major
7,527.4 km
B*
8.4591e-5
RAAN
338.9051°
Arg perigee
32.6295°
Mean anomaly
327.5116°
Rev number
5,555

§ Raw data

HULIANWANG DIGUI-571 65114U 25168J   26264.77523952 -.00000085  00000+0  84591-4 0  99932 65114  50.0035 338.9051 0008743  32.6295 327.5116 13.29330967 55558

JSON: /api/v1/satellites/65114 · /tle

For live sub-satellite position, see the globe view (requires WebGL).

§ Visibility from observer

Set your observer location to see the next 7 days of passes ≥ 10°. The values pass through the URL so the page stays shareable.

No JS? Fill the form by hand. The geolocation button needs JavaScript.